Location: Belfast
(54.5830°N, 5.9330°W)
Time: 19:55:21
(UTC+00:00)

ISS - Visible Passes

Search period start: 24 March 2023 00:00
Search period end: 03 April 2023 01:00
Orbit: 414 x 422 km, 51.6° (Epoch: 24 March)

Date Brightness Start Highest point End Pass type
(mag) Time Alt. Az. Time Alt. Az. Time Alt. Az.
24 Mar -3.2 20:52:30 10° W 20:55:41 44° SSW 20:55:41 44° SSW visible
25 Mar -3.3 20:04:37 10° W 20:07:53 49° S 20:09:42 22° ESE visible
25 Mar -1.4 21:41:27 10° W 21:42:38 17° WSW 21:42:38 17° WSW visible
26 Mar -3.3 20:16:43 10° WSW 20:20:00 51° S 20:23:16 10° ESE visible
26 Mar -2.7 21:53:25 10° W 21:56:27 31° SSW 21:56:37 31° SSW visible
27 Mar -2.9 21:05:26 10° W 21:08:34 38° SSW 21:10:34 19° SE visible
27 Mar -1.0 22:42:48 10° WSW 22:43:30 12° WSW 22:43:30 12° WSW visible
28 Mar -1.9 21:54:25 10° WSW 21:56:55 20° SSW 21:57:26 19° SSW visible
29 Mar -2.1 21:06:13 10° W 21:09:02 25° SSW 21:11:22 13° SSE visible
30 Mar -1.1 21:56:20 10° SW 21:57:07 11° SW 21:57:54 10° SSW visible
31 Mar -1.3 21:07:15 10° WSW 21:09:15 15° SW 21:11:14 10° S visible
